Weather reports worldwide

Advertisment
München-Flughafen, Germany (10870): temperature & dewpoint: 19.08.2019 08:00:00 - 25.08.2019 08:00:00 (CEST)München-Flughafen, Germany (10870): temperature 5cm & temperature -5cm: 19.08.2019 08:00:00 - 25.08.2019 08:00:00 (CEST)München-Flughafen, Germany (10870): temperature -20cm & temperature -100cm: 19.08.2019 08:00:00 - 25.08.2019 08:00:00 (CEST)München-Flughafen, Germany (10870): wind speed & gusts: 19.08.2019 08:00:00 - 25.08.2019 08:00:00 (CEST)München-Flughafen, Germany (10870): wind direction: 19.08.2019 08:00:00 - 25.08.2019 08:00:00 (CEST)München-Flughafen, Germany (10870): reduced air pressure: 19.08.2019 08:00:00 - 25.08.2019 08:00:00 (CEST)München-Flughafen, Germany (10870): visibility: 19.08.2019 08:00:00 - 25.08.2019 08:00:00 (CEST)München-Flughafen, Germany (10870): sunshine duration: 19.08.2019 08:00:00 - 25.08.2019 08:00:00 (CEST)München-Flughafen, Germany (10870): precipitation: 19.08.2019 08:00:00 - 25.08.2019 08:00:00 (CEST)
Date & Time tt [°C] td [°C] tt 5cm [°C] tt -5cm [°C] tt -20cm [°C] tt -100cm [°C] ff [km/h] ff [kn] fx [km/h] fx [kn] dd ppp [hPa] vv [km] sd [min] rr [mm]
25.08.2019 08:00:00 17,4 15,5 17,6 17,7 20,2 18,2 5 3 9 5 - 1018,9 10 37 0,0
25.08.2019 07:00:00 16,1 14,9 15,0 16,4 20,4 18,2 5 3 13 7 NE 1019,1 10 0 0,0
25.08.2019 06:00:00 15,3 14,8 13,2 16,3 20,7 18,2 7 4 15 8 SSW 1018,9 20 0 0,0
25.08.2019 05:00:00 14,8 14,5 13,3 16,6 21,0 18,2 6 4 9 5 S 1019,0 22 0 0,0
25.08.2019 04:00:00 15,0 14,6 13,8 17,1 21,3 18,2 5 3 9 5 S 1018,9 10 0 0,0
25.08.2019 03:00:00 16,9 15,7 14,4 17,7 21,6 18,2 5 3 15 8 W 1018,5 28 0 0,0
25.08.2019 02:00:00 17,4 15,8 15,3 18,2 21,9 18,2 9 5 15 8 SW 1018,6 10 0 0,0
25.08.2019 01:00:00 17,4 16,2 14,6 18,9 22,2 18,2 5 3 9 5 S 1018,7 10 0 0,0
25.08.2019 00:00:00 16,8 15,7 15,1 19,8 22,4 18,2 4 2 21 11 W 1018,8 10 0 0,0
24.08.2019 23:00:00 19,7 16,4 17,8 20,9 22,7 18,2 11 6 22 12 SW 1018,6 10 0 0,0
24.08.2019 22:00:00 20,2 17,5 18,1 22,2 22,8 18,2 5 3 13 7 S 1018,6 30 0 0,0
24.08.2019 21:00:00 20,5 18,4 18,8 23,7 22,8 18,2 2 1 5 3 - 1018,2 10 0 0,0
24.08.2019 20:00:00 23,7 18,7 22,1 26,4 22,6 18,2 2 1 4 2 W 1017,5 30 27 0,0
24.08.2019 19:00:00 27,0 17,8 27,6 28,8 22,3 18,2 3 2 9 5 NNE 1017,1 35 60 0,0
24.08.2019 18:00:00 26,9 15,6 30,0 30,5 21,9 18,2 5 3 9 5 N 1017,0 10 60 0,0
24.08.2019 17:00:00 26,7 16,1 31,4 31,6 21,4 18,2 4 2 12 7 - 1017,1 10 60 0,0
24.08.2019 16:00:00 26,6 16,1 30,7 32,0 20,8 18,2 6 3 13 7 ENE 1017,5 30 60 0,0
24.08.2019 15:00:00 25,7 16,3 31,4 32,2 20,1 18,2 5 3 13 7 NE 1018,2 10 60 0,0
24.08.2019 14:00:00 25,2 16,4 31,6 31,3 19,5 18,2 5 3 13 7 NE 1018,3 10 60 0,0
24.08.2019 13:00:00 24,3 16,8 28,5 29,6 19,0 18,2 4 2 15 8 - 1018,8 10 60 0,0
24.08.2019 12:00:00 23,6 16,7 27,2 27,3 18,6 18,2 7 4 16 9 ENE 1019,3 20 60 0,0
24.08.2019 11:00:00 21,9 16,7 25,5 24,9 18,4 18,2 5 3 13 7 ESE 1019,7 10 60 0,0
24.08.2019 10:00:00 20,0 15,9 23,4 21,4 18,4 18,2 8 4 14 8 ESE 1019,9 10 60 0,0
24.08.2019 09:00:00 18,4 14,9 20,8 18,8 18,5 18,2 7 4 9 5 ENE 1020,3 20 60 0,0
24.08.2019 08:00:00 16,1 15,2 16,8 16,1 18,7 18,2 4 2 8 4 NE 1020,8 15 50 0,0
24.08.2019 07:00:00 13,4 13,4 11,9 14,7 18,9 18,2 2 1 4 2 NE 1021,3 12 0 0,0
24.08.2019 06:00:00 13,0 13,0 11,5 15,0 19,1 18,2 4 2 9 5 ESE 1021,5 10 0 0,0
24.08.2019 05:00:00 14,6 14,4 11,9 15,7 19,2 18,2 2 1 10 6 - 1021,2 10 0 0,0
24.08.2019 04:00:00 16,5 15,5 14,6 16,5 19,4 18,2 8 4 13 7 NNE 1020,9 25 0 0,0
24.08.2019 03:00:00 16,8 16,2 15,3 17,4 19,5 18,2 2 1 5 3 - 1021,0 10 0 0,0
24.08.2019 02:00:00 16,5 16,0 14,6 17,4 19,6 18,2 2 1 5 3 - 1021,5 10 0 0,0
24.08.2019 01:00:00 18,3 16,2 17,1 18,6 19,7 18,2 4 2 8 4 - 1021,5 10 0 0,0
24.08.2019 00:00:00 18,7 17,0 18,1 18,9 19,8 18,2 5 3 8 4 NNE 1021,7 10 0 0,0
23.08.2019 23:00:00 17,8 16,4 17,7 18,9 19,9 18,2 4 2 5 3 NW 1022,4 10 0 0,0
23.08.2019 22:00:00 17,4 16,3 17,4 18,9 20,0 18,2 0 0 5 3 N 1022,9 10 0 0,0
23.08.2019 21:00:00 18,3 16,3 15,6 19,6 20,0 18,2 2 1 5 3 - 1022,8 10 0 0,0
23.08.2019 20:00:00 20,6 16,2 19,6 21,5 19,9 18,3 4 2 10 5 - 1022,3 10 0 0,0
23.08.2019 19:00:00 21,6 15,4 21,3 22,7 19,7 18,3 10 5 21 11 E 1022,0 30 25 0,0
23.08.2019 18:00:00 22,5 15,6 24,8 24,1 19,5 18,3 15 8 23 12 E 1022,0 10 52 0,0
23.08.2019 17:00:00 21,7 15,1 21,9 22,4 19,4 18,3 11 6 23 12 ENE 1022,6 10 0 0,0
23.08.2019 16:00:00 21,6 15,0 22,4 22,4 19,2 18,3 14 8 24 13 ENE 1022,9 30 0 0,0
23.08.2019 15:00:00 21,7 14,6 22,8 23,1 19,0 18,3 13 7 22 12 ENE 1023,2 10 0 0,0
23.08.2019 14:00:00 21,1 14,6 21,9 22,9 18,7 18,3 13 7 22 12 ENE 1023,7 10 0 0,0
23.08.2019 13:00:00 20,9 15,2 22,1 22,2 18,4 18,3 14 7 22 12 E 1024,1 28 1 0,0
23.08.2019 12:00:00 20,7 14,7 22,8 22,8 18,1 18,3 16 8 25 14 E 1024,3 26 32 0,0
23.08.2019 11:00:00 20,4 15,0 24,2 22,5 17,9 18,3 11 6 23 12 E 1024,6 10 60 0,0
23.08.2019 10:00:00 19,0 14,3 23,2 20,8 17,8 18,3 7 4 11 6 NE 1025,1 20 58 0,0
23.08.2019 09:00:00 17,7 13,6 20,3 18,3 17,9 18,3 3 2 5 3 N 1025,4 9 47 0,0
23.08.2019 08:00:00 13,5 13,2 13,9 15,2 18,0 18,3 0 0 4 2 N 1026,2 7 0 0,0
23.08.2019 07:00:00 12,3 12,2 12,0 14,4 18,2 18,3 2 1 8 4 S 1026,4 4,5 0 0,0
23.08.2019 06:00:00 12,0 12,0 11,5 14,3 18,4 18,3 2 1 4 2 - 1026,1 4,0 0 0,0
23.08.2019 05:00:00 11,8 11,8 11,6 14,4 18,6 18,3 2 1 4 2 E 1026,3 5 0 0,0
23.08.2019 04:00:00 12,0 12,0 11,2 14,5 18,9 18,3 3 1 4 2 SSE 1026,4 3,0 0 0,0
23.08.2019 03:00:00 12,3 12,3 12,2 14,8 19,1 18,3 0 0 4 2 N 1026,3 9 0 0,0
23.08.2019 02:00:00 12,7 12,7 9,4 14,7 19,4 18,3 2 1 4 2 - 1026,4 8 0 0,0
23.08.2019 01:00:00 13,6 13,4 10,9 15,6 19,5 18,4 2 1 8 4 ENE 1026,4 10 0 0,0
23.08.2019 00:00:00 14,9 13,7 12,7 17,3 19,7 18,4 4 2 9 5 - 1026,0 10 0 0,0
22.08.2019 23:00:00 17,0 14,6 16,1 18,4 19,8 18,4 8 4 16 9 SSW 1025,9 10 0 0,0
22.08.2019 22:00:00 17,7 14,5 17,2 19,1 19,8 18,4 9 5 18 10 SSW 1025,7 10 0 0,0
22.08.2019 21:00:00 17,9 14,7 17,5 19,8 19,8 18,4 5 3 9 5 S 1025,2 10 0 0,0
22.08.2019 20:00:00 19,1 14,5 18,3 20,9 19,7 18,4 8 4 16 9 SSE 1024,3 10 8 0,0
22.08.2019 19:00:00 20,0 13,5 20,2 22,4 19,5 18,4 8 4 17 9 ESE 1023,9 10 54 0,0
22.08.2019 18:00:00 21,3 13,1 23,4 23,4 19,2 18,4 10 5 21 11 E 1023,6 50 54 0,0
22.08.2019 17:00:00 20,5 12,0 23,5 24,1 18,8 18,4 11 6 24 13 E 1023,9 10 36 0,0
22.08.2019 16:00:00 20,8 12,6 25,1 24,3 18,4 18,4 16 9 22 12 E 1023,9 10 39 0,0
22.08.2019 15:00:00 19,7 12,0 22,3 24,1 18,0 18,4 9 5 32 17 E 1024,5 10 45 0,0
22.08.2019 14:00:00 19,7 12,3 24,6 23,3 17,7 18,4 14 7 34 19 E 1024,6 50 56 0,0
22.08.2019 13:00:00 18,8 12,4 22,3 20,2 17,4 18,4 22 12 36 19 E 1024,8 10 19 0,0
22.08.2019 12:00:00 18,6 12,2 21,5 20,2 17,3 18,4 22 12 34 18 E 1025,1 10 24 0,0
22.08.2019 11:00:00 17,7 11,5 18,9 18,5 17,2 18,4 24 13 34 18 E 1025,1 10 26 0,0
22.08.2019 10:00:00 16,8 11,7 17,9 17,3 17,2 18,4 15 8 29 15 ENE 1025,1 10 28 0,0
22.08.2019 09:00:00 15,0 12,7 16,8 16,0 17,3 18,4 10 6 19 10 NE 1025,6 35 32 0,0
22.08.2019 08:00:00 13,0 12,1 12,7 13,6 17,5 18,5 11 6 19 10 NE 1025,9 10 0 0,0
22.08.2019 07:00:00 11,9 11,3 10,9 12,7 17,7 18,5 8 4 13 7 NNE 1025,8 10 0 0,0
22.08.2019 06:00:00 12,3 11,4 10,4 12,8 17,9 18,5 9 5 15 8 NE 1025,3 10 0 0,0
22.08.2019 05:00:00 12,8 11,2 10,8 13,3 18,1 18,5 8 4 18 10 NE 1025,5 10 0 0,0
22.08.2019 04:00:00 13,1 11,1 11,8 13,7 18,3 18,5 9 5 16 9 NE 1025,6 10 0 0,0
22.08.2019 03:00:00 13,3 11,2 11,9 14,0 18,5 18,5 11 6 16 9 NE 1026,0 10 0 0,0
22.08.2019 02:00:00 13,7 11,5 12,6 14,4 18,7 18,5 9 5 17 9 NE 1026,3 50 0 0,0
22.08.2019 01:00:00 13,8 11,9 12,5 14,6 18,9 18,5 9 5 15 8 NE 1026,7 50 0 0,0
22.08.2019 00:00:00 14,1 12,0 11,9 14,9 19,2 18,5 5 3 21 11 NE 1027,4 10 0 0,0
21.08.2019 23:00:00 14,7 12,4 11,8 15,3 19,4 18,5 9 5 21 12 ENE 1027,2 10 0 0,0
21.08.2019 22:00:00 15,7 12,7 13,5 16,2 19,5 18,5 6 3 9 5 ENE 1027,2 50 0 0,0
21.08.2019 21:00:00 16,3 12,8 13,4 17,0 19,6 18,5 8 4 13 7 E 1027,0 10 0 0,0
21.08.2019 20:00:00 17,5 12,5 16,1 18,7 19,6 18,5 4 2 15 8 E 1026,5 10 0 0,0
21.08.2019 19:00:00 18,1 11,9 18,4 19,8 19,6 18,5 9 5 21 11 E 1026,4 10 18 0,0
21.08.2019 18:00:00 18,3 11,8 18,9 20,0 19,5 18,5 13 7 21 11 E 1026,8 50 2 0,0
21.08.2019 17:00:00 18,4 10,7 19,1 20,8 19,4 18,5 13 7 21 11 ENE 1026,7 50 0 0,0
21.08.2019 16:00:00 18,7 11,5 21,0 21,7 19,2 18,5 10 5 16 9 ENE 1026,9 50 0 0,0
21.08.2019 15:00:00 17,8 12,0 19,1 21,3 18,9 18,5 11 6 16 9 E 1027,3 50 3 0,0
21.08.2019 14:00:00 19,0 11,4 25,0 24,2 18,5 18,5 11 6 22 12 NE 1027,2 10 39 0,0
21.08.2019 13:00:00 18,4 10,0 23,7 23,8 18,2 18,5 9 5 22 12 NE 1027,7 10 40 0,0
21.08.2019 12:00:00 17,6 10,4 22,1 23,6 17,9 18,5 9 5 29 16 E 1028,4 10 50 0,0
21.08.2019 11:00:00 16,2 10,1 19,9 21,8 17,7 18,5 8 4 15 8 NE 1028,8 10 59 0,0
21.08.2019 10:00:00 15,9 11,7 20,5 19,1 17,7 18,5 8 4 13 7 NNW 1028,7 10 34 0,0
21.08.2019 09:00:00 14,6 12,1 17,0 17,0 17,7 18,5 3 2 8 4 W 1029,1 20 7 0,0
21.08.2019 08:00:00 13,3 12,4 13,9 14,8 17,8 18,5 5 3 8 4 W 1029,3 18 0 0,0
21.08.2019 07:00:00 12,9 12,4 12,8 14,3 18,0 18,5 4 2 8 4 W 1029,3 10 0 0,0
21.08.2019 06:00:00 12,8 12,6 12,8 14,2 18,1 18,5 5 3 11 6 W 1029,1 8 0 0,0
21.08.2019 05:00:00 12,8 12,5 12,6 14,2 18,3 18,5 5 3 11 6 WSW 1028,7 10 0 0,1
21.08.2019 04:00:00 13,0 12,7 12,8 14,3 18,5 18,5 10 6 15 8 WSW 1028,8 12 0 0,8
21.08.2019 03:00:00 12,8 12,5 12,7 14,3 18,7 18,5 11 6 13 7 WSW 1028,3 15 0 1,3
21.08.2019 02:00:00 12,9 12,3 12,6 14,4 19,0 18,5 7 4 18 10 W 1027,9 8 0 3,2
21.08.2019 01:00:00 13,1 12,5 12,9 14,8 19,2 18,5 12 6 21 11 W 1028,2 6 0 2,0
21.08.2019 00:00:00 13,5 12,7 13,2 15,2 19,5 18,5 11 6 25 13 W 1027,2 12 0 2,6
20.08.2019 23:00:00 14,1 12,7 13,4 15,6 19,7 18,5 19 10 36 20 WNW 1026,5 7 0 0,3
20.08.2019 22:00:00 14,6 13,6 14,2 16,0 20,0 18,5 16 8 27 15 WNW 1025,4 12 0 0,6
20.08.2019 21:00:00 14,5 13,5 14,1 16,3 20,2 18,5 13 7 30 16 W 1024,8 8 0 0,0
20.08.2019 20:00:00 14,6 13,5 14,2 16,8 20,4 18,5 22 12 38 21 WNW 1023,5 7 0 1,4
20.08.2019 19:00:00 15,6 14,9 15,4 18,0 20,4 18,5 24 13 41 22 NNW 1021,7 6 0 0,6
20.08.2019 18:00:00 17,3 16,3 17,2 19,7 20,4 18,5 13 7 22 12 NNW 1020,7 13 0 1,2
20.08.2019 17:00:00 19,1 16,7 18,7 20,7 20,4 18,5 8 5 16 9 NNW 1019,7 15 0 0,0
20.08.2019 16:00:00 19,3 17,2 19,2 21,8 20,3 18,5 9 5 14 8 N 1019,4 10 0 0,0
20.08.2019 15:00:00 19,5 17,0 19,7 22,2 20,2 18,5 8 4 11 6 N 1019,8 10 0 0,1
20.08.2019 14:00:00 19,2 17,3 19,7 21,9 20,1 18,5 5 3 9 5 NNE 1019,9 10 0 0,4
20.08.2019 13:00:00 18,9 17,2 19,2 21,3 20,0 18,5 3 2 8 4 NNE 1020,3 20 0 0,6
20.08.2019 12:00:00 19,2 17,4 19,8 21,3 19,9 18,5 4 2 9 5 - 1020,4 10 0 0,2
20.08.2019 11:00:00 19,0 16,6 19,2 21,4 19,8 18,5 5 3 8 4 N 1020,3 10 0 0,0
20.08.2019 10:00:00 19,4 15,9 21,6 22,5 19,7 18,5 2 1 9 5 - 1020,0 10 6 0,0
20.08.2019 09:00:00 19,2 15,2 20,0 20,6 19,8 18,5 4 2 9 5 - 1020,0 10 31 0,0
20.08.2019 08:00:00 17,4 15,3 17,9 18,5 19,9 18,5 5 3 8 4 NW 1020,4 10 23 0,0
20.08.2019 07:00:00 15,9 15,2 15,7 16,9 20,1 18,5 0 0 5 3 N 1020,5 30 0 0,0
20.08.2019 06:00:00 15,5 15,1 15,2 16,9 20,3 18,4 2 1 5 3 N 1020,4 10 0 0,0
20.08.2019 05:00:00 15,9 15,2 15,3 17,1 20,5 18,4 4 2 21 11 - 1020,1 10 0 0,1
20.08.2019 04:00:00 15,7 15,3 15,5 17,2 20,7 18,4 11 6 15 8 ESE 1020,0 35 0 4,5
20.08.2019 03:00:00 15,8 14,4 15,4 17,8 20,9 18,4 9 5 26 14 W 1021,2 6 0 2,4
20.08.2019 02:00:00 17,8 17,0 17,1 18,4 21,1 18,4 4 2 9 5 - 1019,6 10 0 0,0
20.08.2019 01:00:00 17,4 17,1 16,9 18,6 21,3 18,4 8 4 9 5 NW 1019,6 10 0 0,0
20.08.2019 00:00:00 17,4 16,7 16,8 18,8 21,5 18,4 5 3 15 8 SE 1019,7 10 0 4,4
19.08.2019 23:00:00 18,7 16,9 17,7 19,7 21,7 18,4 8 4 20 11 S 1019,9 6 0 0,5
19.08.2019 22:00:00 19,1 16,9 18,4 20,0 21,9 18,4 8 4 9 5 N 1018,8 10 0 0,0
19.08.2019 21:00:00 19,5 16,6 18,4 20,4 22,0 18,4 5 3 13 7 NE 1018,4 10 0 0,0
19.08.2019 20:00:00 20,8 17,1 20,4 21,9 21,9 18,4 5 3 16 9 NNE 1017,7 10 23 0,0
19.08.2019 19:00:00 22,1 16,6 22,1 24,0 21,8 18,4 11 6 16 9 N 1017,0 10 20 0,0
19.08.2019 18:00:00 23,2 16,3 25,4 24,9 21,6 18,3 4 2 9 5 - 1016,6 10 6 0,0
19.08.2019 17:00:00 22,9 15,7 24,6 26,6 21,4 18,3 8 4 13 7 E 1016,7 10 30 0,0
19.08.2019 16:00:00 22,4 15,6 23,7 25,5 21,3 18,3 7 4 13 7 WNW 1017,3 82 19 0,0
19.08.2019 15:00:00 22,1 16,0 23,6 23,6 21,1 18,3 8 4 16 9 W 1017,4 10 0 0,0
19.08.2019 14:00:00 21,6 16,1 22,8 24,3 20,9 18,3 9 5 22 12 WNW 1017,2 10 6 0,0
19.08.2019 13:00:00 21,9 16,1 24,1 26,3 20,8 18,3 12 7 24 13 SSW 1016,9 82 51 0,0
19.08.2019 12:00:00 20,3 16,0 22,5 22,4 20,8 18,3 13 7 22 12 SW 1017,4 10 2 0,0
19.08.2019 11:00:00 18,8 16,0 18,8 20,5 20,9 18,3 13 7 21 11 SSW 1017,6 10 0 0,0
19.08.2019 10:00:00 18,4 16,4 19,2 20,0 21,1 18,3 11 6 21 12 S 1017,2 50 0 0,0
19.08.2019 09:00:00 17,7 16,7 17,8 18,6 21,3 18,3 12 7 23 13 SSW 1017,7 40 0 0,2
19.08.2019 08:00:00 17,0 15,8 16,7 18,1 21,6 18,2 10 6 18 10 S 1017,2 15 0 0,0

tt = temperature
td = dewpoint
tt 5cm = temperature 5cm
tt -5cm = temperature -5cm
tt -20cm = temperature -20cm
tt -100cm = temperature -100cm
ff = wind speed
fx = gusts
dd = wind direction
ppp = reduced air pressure
vv = visibility
sd = sunshine duration
rr = precipitation

Next stations